K0HYD Weather Reports


time (UTC)temp
F
wind
direction
speed
knots
gust
knots
rain 1hr
in
rain 24hr
in
rain mn
in
humidity
%
barometer
mb
20260507225958 78 271 0.0 0.0 0.00 0.00 0.00 25 1010.5
20260507224457 78 264 0.0 0.9 0.00 0.00 0.00 26 1010.7
20260507222956 78 155 0.0 0.9 0.00 0.00 0.00 27 1010.9
20260507221455 78 218 0.0 0.9 0.00 0.00 0.00 26 1010.9
20260507215955 78 218 0.0 0.0 0.00 0.00 0.00 26 1011.2
20260507214454 77 229 0.0 0.9 0.00 0.00 0.00 28 1011.4
20260507212953 77 221 0.0 0.9 0.00 0.00 0.00 27 1011.6
20260507211452 77 239 0.0 0.9 0.00 0.00 0.00 28 1011.9
20260507205951 76 235 0.0 7.0 0.00 0.00 0.00 30 1012.1
20260507204450 76 243 0.0 0.9 0.00 0.00 0.00 29 1012.4
20260507202949 75 267 0.0 1.7 0.00 0.00 0.00 34 1012.8
20260507201448 75 226 0.0 0.9 0.00 0.00 0.00 31 1013.1
20260507195947 74 259 0.0 0.9 0.00 0.00 0.00 30 1013.4
20260507194446 74 283 0.0 0.9 0.00 0.00 0.00 34 1013.8
20260507192945 72 122 2.6 3.5 0.00 0.00 0.00 36 1014.0
20260507191444 71 270 0.0 1.7 0.00 0.00 0.00 36 1014.4
20260507182941 70 231 0.0 0.9 0.00 0.00 0.00 38 1015.0
20260507181440 69 232 0.0 0.9 0.00 0.00 0.00 40 1015.3
20260507175939 69 269 0.0 0.9 0.00 0.00 0.00 39 1015.6
20260507174438 68 264 0.0 0.9 0.00 0.00 0.00 42 1015.9
20260507172937 66 212 0.0 0.9 0.00 0.00 0.00 45 1016.2
20260507171436 66 221 0.0 0.9 0.00 0.00 0.00 43 1016.6
20260507165935 65 266 0.0 1.7 0.00 0.00 0.00 46 1017.0
20260507164435 64 229 0.0 0.9 0.00 0.00 0.00 48 1017.2
20260507162934 63 250 0.0 0.9 0.00 0.00 0.00 52 1017.4
20260507161432 63 248 0.0 1.7 0.00 0.00 0.00 50 1017.5
20260507155932 62 264 0.0 1.7 0.00 0.00 0.00 55 1017.7
20260507154430 60 256 0.0 0.9 0.00 0.00 0.00 56 1017.7
20260507152929 60 262 0.0 0.9 0.00 0.00 0.00 59 1017.9
20260507151429 59 278 0.0 1.7 0.00 0.00 0.00 61 1018.1
20260507145928 58 232 0.0 0.9 0.00 0.00 0.00 62 1018.4
20260507144427 57 236 0.0 0.9 0.00 0.00 0.00 63 1018.3
20260507142926 56 221 0.0 0.9 0.00 0.00 0.00 69 1018.6
20260507141425 54 226 0.9 0.9 0.00 0.00 0.00 73 1018.8
20260507135924 53 217 0.0 0.0 0.00 0.00 0.00 77 1018.9
20260507134423 51 269 0.0 0.0 0.00 0.00 0.00 81 1019.1
20260507132922 50 248 0.0 0.0 0.00 0.00 0.00 84 1019.1
20260507125920 47 245 0.0 0.0 0.00 0.00 0.00 92 1019.3
20260507124419 45 228 0.0 0.0 0.00 0.00 0.00 93 1019.1
20260507122918 44 253 0.0 0.0 0.00 0.00 0.00 94 1019.1
20260507121417 43 245 0.0 0.0 0.00 0.00 0.00 94 1019.0
20260507115916 42 245 0.0 0.0 0.00 0.00 0.00 94 1019.0
20260507114415 41 206 0.0 0.0 0.00 0.00 0.00 93 1018.9
20260507112914 41 203 0.0 0.0 0.00 0.00 0.00 91 1018.9
20260507111413 42 203 0.0 0.0 0.00 0.00 0.00 92 1018.8
20260507104411 43 203 0.0 0.0 0.00 0.00 0.00 91 1018.7
20260507102910 43 240 0.0 0.0 0.00 0.00 0.00 91 1018.9
20260507101410 43 249 0.0 0.0 0.00 0.00 0.00 91 1019.1
20260507095908 43 232 0.0 0.0 0.00 0.00 0.00 92 1019.2
20260507094407 42 232 0.0 0.0 0.00 0.00 0.00 92 1019.4
20260507091405 44 232 0.0 0.0 0.00 0.00 0.00 87 1019.4
20260507085905 45 232 0.0 0.0 0.00 0.00 0.00 85 1019.4
20260507084404 46 232 0.0 0.0 0.00 0.00 0.00 85 1019.5
20260507081402 49 231 0.0 0.0 0.00 0.00 0.00 84 1019.6
20260507075901 50 222 0.0 0.0 0.00 0.00 0.00 85 1019.8
20260507074400 50 340 0.0 0.0 0.00 0.00 0.00 86 1019.8
20260507072859 49 16 0.0 0.0 0.00 0.00 0.00 86 1019.9
20260507071358 49 16 0.0 0.0 0.00 0.00 0.00 86 1020.0
20260507065857 48 16 0.0 0.0 0.00 0.00 0.00 86 1020.2
20260507064356 48 16 0.0 0.0 0.00 0.00 0.00 85 1020.2
20260507062855 48 16 0.0 0.0 0.00 0.00 0.00 84 1020.4
20260507061354 48 16 0.0 0.0 0.00 0.00 0.00 84 1020.2
20260507055853 49 16 0.0 0.0 0.00 0.00 0.00 83 1020.3
20260507052851 49 16 0.0 0.0 0.00 0.00 0.00 80 1020.4
20260507051350 49 16 0.0 0.0 0.00 0.00 0.00 81 1020.4
20260507044348 48 16 0.0 0.0 0.00 0.00 0.18 83 1020.2
20260507042847 48 16 0.0 0.0 0.00 0.00 0.18 83 1020.2
20260507041347 48 16 0.0 0.0 0.00 0.00 0.18 81 1020.0
20260507035845 49 16 0.0 0.0 0.00 0.00 0.18 82 1020.0
20260507034344 50 16 0.0 0.0 0.00 0.00 0.18 81 1020.0
20260507032843 50 16 0.0 0.0 0.00 0.00 0.18 80 1020.2
20260507031342 51 16 0.0 0.0 0.00 0.00 0.18 78 1020.1
20260507025841 51 16 0.0 0.0 0.00 0.00 0.18 78 1020.0
20260507024341 51 16 0.0 0.0 0.00 0.00 0.18 77 1019.9
20260507022840 52 16 0.0 0.0 0.00 0.00 0.18 75 1019.7
20260507015838 53 16 0.0 0.0 0.00 0.00 0.18 70 1019.6
20260507014337 53 16 0.0 0.0 0.00 0.00 0.18 66 1019.3
20260507012836 54 16 0.0 0.0 0.00 0.00 0.18 63 1019.1
20260507011335 55 16 0.0 0.0 0.00 0.00 0.18 62 1018.9
20260507005834 55 16 0.0 0.0 0.00 0.00 0.18 59 1018.8
20260507002832 56 40 0.0 0.9 0.00 0.00 0.18 57 1018.8
20260507001331 56 32 0.0 0.9 0.00 0.00 0.18 55 1018.8
20260506235830 57 85 0.0 0.9 0.00 0.00 0.18 55 1018.8
20260506234329 57 308 0.0 0.9 0.00 0.00 0.18 53 1018.9
20260506232828 58 6 0.9 0.9 0.00 0.00 0.18 53 1018.7
20260506231327 58 49 0.0 0.9 0.00 0.00 0.18 52 1018.6